Regional Weather Roundup
Issued by NWS

Home | Current Version | Previous Version | Text Only | Print | Product List | Glossary On
Versions: 1 2 3 4 5 6 7 8 9 10 11 12 13 14 15 16 17 18 19 20 21 22 23 24 25 26 27 28 29 30 31 32 33 34 35 36 37 38 39 40 41 42 43 44 45 46 47 48 49 50
000
ASUS45 KBOU 020210
RWRCO

WEATHER ROUNDUP FOR COLORADO
NATIONAL WEATHER SERVICE PUEBLO CO
800 PM MDT SAT AUG 01 2015

NOTE: "FAIR" INDICATES FEW OR NO CLOUDS BELOW 12000 FEET WITH NO
SIGNIFICANT WEATHER AND/OR OBSTRUCTIONS TO VISIBILITY.

COZ001>005-013-030-031-020300-
...NORTHWEST COLORADO...

CITY           SKY/WX    TMP DP  RH WIND       PRES   REMARKS
CRAIG          CLOUDY    78  42  27 SW8       30.14R
HAYDEN         CLOUDY    77  37  24 W3        30.16R
MEEKER         CLOUDY    75  42  30 W9        30.17S
MOUNT WERNER   NOT AVBL
STEAMBOAT SPGS FAIR      73  47  39 E3        30.18S
WALDEN         FAIR      70  32  24 NE6       30.29S
$$

COZ006>008-011-020300-
...WEST CENTRAL VALLEYS...

CITY           SKY/WX    TMP DP  RH WIND       PRES   REMARKS
GRAND JUNCTION CLOUDY    82  44  26 NE17G24   30.06S
MONTROSE       CLOUDY    75  48  38 S16G28    30.20R
EAGLE          CLOUDY    81  43  26 SW10      30.18R
RIFLE          CLOUDY    82  42  24 SW15      30.12R
DELTA          NOT AVBL
NUCLA          CLOUDY    68  54  60 E20G26    30.25R
$$

COZ017>023-064>068-020300-
...SOUTHWEST COLORADO...

CITY           SKY/WX    TMP DP  RH WIND       PRES   REMARKS
DURANGO        CLOUDY    68  55  63 CALM      30.24F
CORTEZ         CLEAR     73  61  65 E3        30.16S
PAGOSA SPRINGS FAIR      65  56  71 CALM      30.32F
TELLURIDE      CLOUDY    55  51  86 CALM      30.45F THUNDER
WOLF CREEK PAS NOT AVBL
$$

COZ009-010-012-014-032>034-037-058>063-020300-
...CENTRAL COLORADO...

CITY           SKY/WX    TMP DP  RH WIND       PRES   REMARKS
ASPEN          CLOUDY    72  43  35 VRB5      30.27S
BUENA VISTA    FAIR      67  42  40 SE8G17    30.32R
COPPER MTN     CLOUDY    59  32  36 W12       30.64S
BERTHOUD PASS  FAIR      50  37  62 E14       30.69S
COTTONWOOD PAS CLOUDY    64  37  36 W5        30.47R
GUNNISON       CLOUDY    61  52  72 NW3       30.37F
KREMMLING      CLOUDY    77  23  13 NW6       30.23R
LEADVILLE      CLOUDY    63  35  35 N8        30.44R
MONARCH PASS   CLOUDY    45  41  87 SW14      30.73S
SALIDA         NOT AVBL
NIWOT RIDGE    NOT AVBL
SUNLIGHT       LGT RAIN  59  41  51 CALM      30.57S
WILKERSON PASS MOCLDY    55  39  54 CALM      30.60S
$$

COZ069>075-020300-
...SAN LUIS VALLEY/SANGRE DE CRISTO MOUNTAINS...

CITY           SKY/WX    TMP DP  RH WIND       PRES   REMARKS
ALAMOSA        CLOUDY    62  49  62 E13       30.31F
LA VETA PASS   DRIZZLE   46  43  87 W3        30.52F
SAGUACHE       CLOUDY    63  48  59 CALM      30.36F
$$

COZ035-036-038>040-020300-
...NORTHERN COLORADO FRONT RANGE...

CITY           SKY/WX    TMP DP  RH WIND       PRES   REMARKS
DENVER INTL AP MOCLDY    80  53  39 SE17      30.07R
DMNS CITY PARK NOT AVBL
AURORA         MOCLDY    80  53  38 S16       30.09R
FRONT RANGE AP MOCLDY    77  52  41 SE17G25   30.09R
ERIE MUNI ARPT FAIR      81  45  27 W3        30.03S
BOULDER MUN AP FAIR      81  45  28 W3        30.05R
CENTENNIAL     MOCLDY    76  49  38 S20G33    30.11R
BROOMFIELD     MOCLDY    84  41  21 NW9       30.08S
LOVELAND       MOCLDY    84  48  28 E12       30.03R
LONGMONT       FAIR      80  49  34 NW5       30.04S
$$

COZ041-046-047-076>085-087-088-020300-
...PIKES PEAK/PALMER DIVIDE AND SOUTHERN FOOTHILLS...

CITY           SKY/WX    TMP DP  RH WIND       PRES   REMARKS
COLO. SPRINGS  CLOUDY    67  54  63 SW13      30.24R
A. F. ACADEMY  CLOUDY    67  51  55 S17       30.24R
ELLICOTT       FAIR     N/A N/A N/A SW12      30.19F THUNDER
FALCON         DRIZZLE   61  55  82 SW14G21   30.26F
FORT CARSON    MOCLDY    68  54  60 SW10      30.21S
LIMON          CLOUDY    78  55  44 SE12      30.10S
MONUMENT HILL  NOT AVBL
TRINIDAD       CLOUDY    68  55  63 W17       30.19F
$$

COZ042>045-048>051-090-091-020300-
...NORTHEAST COLORADO...

CITY           SKY/WX    TMP DP  RH WIND       PRES   REMARKS
GREELEY ARPT   MOCLDY    81  52  36 NE6       30.02S
AKRON          TSTM      68  59  73 SE38G58   30.07R
BURLINGTON     MOCLDY    79  56  45 SE14      30.06R
WRAY           MOCLDY    84  50  30 SE15      29.99F
STERLING       FAIR      81  55  41 E12       30.03R
HOLYOKE        NOT AVBL
FORT MORGAN    FAIR      80  54  39 E10       30.02R
$$

COZ086-089-092>099-020300-
...SOUTHEAST COLORADO...

CITY           SKY/WX    TMP DP  RH WIND       PRES   REMARKS
PUEBLO         CLOUDY    71  61  70 S5        30.13F
LA JUNTA       CLOUDY    79  55  43 NW17G30   30.05R
LAMAR          CLOUDY    84  64  50 SE13      29.99R
SPRINGFIELD      N/A     78  66  66 S13       30.06R
$$




USA.gov is the U.S. government's official web portal to all federal, state and local government web resources and services.